Ocala, FL

12:38 PM EDT on April 23, 2017 (GMT -0400)
Ocala Regional-Taylor

Weather History for KOCF - March, 2013

Change the Weather History Date:

Wednesday, March 27, 2013

  Actual Average Record
Temperature  
Mean Temperature 46 °F -  
Max Temperature 60 °F 76 °F 87 °F (2005)
Min Temperature 32 °F 51 °F 30 °F (2006)
Degree Days  
Heating Degree Days 19    
Moisture  
Dew Point 29 °F    
Average Humidity 61    
Maximum Humidity 81    
Minimum Humidity 23    
Precipitation  
Precipitation 0.00 in - - ()
Sea Level Pressure  
Sea Level Pressure 30.28 in    
Wind  
Wind Speed 3 mph (NW)    
Max Wind Speed 12 mph    
Max Gust Speed 18 mph    
Visibility 10 miles    
Events      
Averages and records for this station are not official NWS values.
T = Trace of Precipitation, MM = Missing Value Source: NWS Daily Summary

Daily Weather History Graph

Daily Weather History Graph

Search for Another Location

Airport or City:

Trip Planner

Search our weather history database for the weather conditions in past years. The results will help you decide how hot, cold, wet, or windy it might be!

Date:

Astronomy

Mar. 27, 2013 Rise Set
Actual Time 7:24 AM EDT 7:44 PM EDT
Civil Twilight 7:00 AM EDT 8:08 PM EDT
Nautical Twilight 6:32 AM EDT 8:36 PM EDT
Astronomical Twilight 6:04 AM EDT 9:04 PM EDT
Moon 8:20 PM EDT (3/27) 7:18 AM EDT (3/27)
Length of Visible Light 13h 07m
Length of Day
12h 20m
Full, 100% of the Moon is Illuminated
Mar 27
Full
Apr 3
Last Quarter
Apr 10
New
Apr 18
First Quarter
Apr 25
Full

Hourly Weather History & Observations

Time (EDT) Temp. Windchill Dew Point Humidity Pressure Visibility Wind Dir Wind Speed Gust Speed Precip Events Conditions
12:15 AM 39.2 °F - 28.4 °F 65% 30.27 in 10.0 mi Calm Calm - N/A   Clear
12:35 AM 39.2 °F - 28.4 °F 65% 30.28 in 10.0 mi Calm Calm - N/A   Clear
12:55 AM 39.2 °F - 28.4 °F 65% 30.28 in 10.0 mi Calm Calm - N/A   Clear
1:15 AM 37.4 °F - 28.4 °F 70% 30.28 in 10.0 mi Calm Calm - N/A   Clear
1:35 AM 37.4 °F - 28.4 °F 70% 30.28 in 10.0 mi Calm Calm - N/A   Clear
1:55 AM 35.6 °F - 26.6 °F 70% 30.28 in 10.0 mi Calm Calm - N/A   Clear
2:15 AM 35.6 °F - 28.4 °F 75% 30.27 in 10.0 mi Calm Calm - N/A   Clear
2:35 AM 35.6 °F 32.8 °F 28.4 °F 75% 30.27 in 10.0 mi North 3.5 mph - N/A   Clear
2:55 AM 35.6 °F 32.8 °F 28.4 °F 75% 30.27 in 10.0 mi North 3.5 mph - N/A   Clear
3:15 AM 35.6 °F 32.8 °F 28.4 °F 75% 30.26 in 10.0 mi North 3.5 mph - N/A   Clear
3:35 AM 35.6 °F 31.7 °F 28.4 °F 75% 30.26 in 10.0 mi NNW 4.6 mph - N/A   Clear
3:55 AM 35.6 °F - 26.6 °F 70% 30.26 in 10.0 mi Calm Calm - N/A   Clear
4:15 AM 35.6 °F 32.8 °F 26.6 °F 70% 30.26 in 10.0 mi North 3.5 mph - N/A   Clear
4:35 AM 35.6 °F 31.7 °F 26.6 °F 70% 30.26 in 10.0 mi North 4.6 mph - N/A   Clear
4:55 AM 35.6 °F 31.7 °F 26.6 °F 70% 30.26 in 10.0 mi North 4.6 mph - N/A   Clear
5:15 AM 35.6 °F 31.7 °F 26.6 °F 70% 30.27 in 10.0 mi NNW 4.6 mph - N/A   Clear
5:35 AM 33.8 °F 28.6 °F 26.6 °F 75% 30.27 in 10.0 mi NNW 5.8 mph - N/A   Clear
5:55 AM 33.8 °F 29.6 °F 26.6 °F 75% 30.28 in 10.0 mi North 4.6 mph - N/A   Clear
6:15 AM 35.6 °F 31.7 °F 26.6 °F 70% 30.28 in 10.0 mi North 4.6 mph - N/A   Clear
6:35 AM 35.6 °F 32.8 °F 26.6 °F 70% 30.29 in 10.0 mi North 3.5 mph - N/A   Clear
6:50 AM 35.6 °F 32.8 °F 24.8 °F 65% 30.29 in 10.0 mi North 3.5 mph - N/A   Clear
7:50 AM 32.0 °F - 24.8 °F 75% 30.31 in 10.0 mi Calm Calm - N/A   Clear
8:50 AM 39.2 °F 33.6 °F 28.4 °F 65% 30.33 in 10.0 mi North 8.1 mph - N/A   Clear
9:50 AM 44.6 °F 40.2 °F 26.6 °F 49% 30.35 in 10.0 mi NNE 8.1 mph - N/A   Clear
10:50 AM 48.2 °F - 24.8 °F 40% 30.35 in 10.0 mi North 10.4 mph - N/A   Clear
11:50 AM 51.8 °F - 24.8 °F 35% 30.34 in 10.0 mi NNW 9.2 mph - N/A   Clear
12:50 PM 55.4 °F - 24.8 °F 31% 30.32 in 10.0 mi West 11.5 mph - N/A   Clear
1:50 PM 57.2 °F - 24.8 °F 29% 30.30 in 10.0 mi NW 10.4 mph - N/A   Clear
2:50 PM 60.8 °F - 24.8 °F 25% 30.27 in 10.0 mi NNW 6.9 mph 18.4 mph N/A   Clear
3:50 PM 60.8 °F - 24.8 °F 25% 30.24 in 10.0 mi West 8.1 mph 17.3 mph N/A   Clear
4:50 PM 60.8 °F - 23.0 °F 23% 30.23 in 10.0 mi NW 8.1 mph - N/A   Clear
5:50 PM 60.8 °F - 23.0 °F 23% 30.23 in 10.0 mi NNW 11.5 mph 17.3 mph N/A   Clear
6:50 PM 57.2 °F - 32.0 °F 38% 30.24 in 10.0 mi West 8.1 mph - N/A   Clear
7:55 PM 51.8 °F - 33.8 °F 50% 30.26 in 10.0 mi WSW 5.8 mph - N/A   Clear
8:15 PM 50.0 °F - 33.8 °F 54% 30.26 in 10.0 mi WSW 6.9 mph - N/A   Clear
8:35 PM 48.2 °F - 33.8 °F 58% 30.27 in 10.0 mi SW 6.9 mph - N/A   Clear
8:55 PM 48.2 °F - 35.6 °F 62% 30.27 in 10.0 mi WSW 5.8 mph - N/A   Clear
9:15 PM 48.2 °F - 35.6 °F 62% 30.28 in 10.0 mi West 4.6 mph - N/A   Clear
9:35 PM 46.4 °F - 35.6 °F 66% 30.29 in 10.0 mi Calm Calm - N/A   Clear
9:55 PM 46.4 °F - 35.6 °F 66% 30.28 in 10.0 mi Calm Calm - N/A   Clear
10:15 PM 44.6 °F 43.1 °F 35.6 °F 71% 30.29 in 10.0 mi West 3.5 mph - N/A   Clear
10:35 PM 44.6 °F - 33.8 °F 66% 30.29 in 10.0 mi Calm Calm - N/A   Clear
10:55 PM 42.8 °F - 33.8 °F 70% 30.30 in 10.0 mi Calm Calm - N/A   Clear
11:15 PM 42.8 °F - 33.8 °F 70% 30.30 in 10.0 mi Calm Calm - N/A   Clear
11:35 PM 39.2 °F - 33.8 °F 81% 30.30 in 10.0 mi Calm Calm - N/A   Clear
11:55 PM 42.8 °F 41.1 °F 33.8 °F 70% 30.30 in 10.0 mi West 3.5 mph - N/A   Clear